• In United Kingdom
  • List of Countries
  • For 7 days
  • Water Temperature
  • Satellite Maps
  • Weather Map
  • Weather Widgets
  • user-avatar
    Login

    Hourly Weather Armawir

    Today, 20 July, Friday

    Time Temperature Precipitation Wind Pressure Humidity
    00:00 +25°C° 0 mm 3 mps 682 mmHg 58%
    01:00 +24°C° 0 mm 2 mps 682 mmHg 59%
    02:00 +24°C° 0 mm 2 mps 682 mmHg 60%
    03:00 +23°C° 0 mm 2 mps 682 mmHg 61%
    04:00 +24°C° 0 mm 2 mps 682 mmHg 59%
    05:00 +24°C° 0 mm 2 mps 682 mmHg 56%
    06:00 +25°C° 0 mm 1 mps 682 mmHg 54%
    07:00 +27°C° 0 mm 2 mps 682 mmHg 46%
    08:00 +29°C° 0 mm 2 mps 682 mmHg 38%
    09:00 +32°C° 0 mm 2 mps 682 mmHg 31%
    10:00 +34°C° 0 mm 2 mps 682 mmHg 27%
    11:00 +35°C° 0 mm 2 mps 682 mmHg 22%
    12:00 +37°C° 0 mm 3 mps 682 mmHg 18%
    13:00 +37°C° 0 mm 3 mps 682 mmHg 16%
    14:00 +38°C° 0 mm 4 mps 682 mmHg 15%
    15:00 +38°C° 0 mm 4 mps 682 mmHg 14%
    16:00 +38°C° 0 mm 4 mps 682 mmHg 15%
    17:00 +37°C° 0 mm 3 mps 681 mmHg 17%
    18:00 +36°C° 0 mm 3 mps 681 mmHg 18%
    19:00 +33°C° 0 mm 3 mps 682 mmHg 26%
    20:00 +29°C° 0 mm 3 mps 682 mmHg 33%
    21:00 +27°C° 0 mm 3 mps 682 mmHg 41%
    22:00 +26°C° 0 mm 3 mps 682 mmHg 45%
    23:00 +25°C° 0 mm 3 mps 682 mmHg 48%

    Tomorrow, 21 July, Saturday

    Time Temperature Precipitation Wind Pressure Humidity
    00:00 +24°C° 0 mm 3 mps 682 mmHg 51%
    01:00 +24°C° 0 mm 3 mps 682 mmHg 54%
    02:00 +22°C° 0 mm 3 mps 682 mmHg 57%
    03:00 +22°C° 0 mm 3 mps 682 mmHg 60%
    04:00 +23°C° 0 mm 2 mps 683 mmHg 60%
    05:00 +23°C° 0 mm 2 mps 683 mmHg 60%
    06:00 +23°C° 0 mm 2 mps 683 mmHg 61%
    07:00 +25°C° 0 mm 2 mps 683 mmHg 54%
    08:00 +27°C° 0 mm 2 mps 683 mmHg 48%
    09:00 +29°C° 0 mm 2 mps 683 mmHg 41%
    10:00 +31°C° 0 mm 2 mps 683 mmHg 37%
    11:00 +32°C° 0 mm 2 mps 683 mmHg 32%
    12:00 +35°C° 0 mm 2 mps 683 mmHg 27%
    13:00 +35°C° 0 mm 2 mps 683 mmHg 25%
    14:00 +36°C° 0 mm 2 mps 683 mmHg 24%
    15:00 +36°C° 0 mm 2 mps 683 mmHg 22%
    16:00 +36°C° 0.1 mm 3 mps 683 mmHg 26%
    17:00 +35°C° 0.1 mm 4 mps 683 mmHg 29%
    18:00 +34°C° 0.1 mm 4 mps 682 mmHg 32%
    19:00 +32°C° 0.3 mm 4 mps 683 mmHg 40%
    20:00 +28°C° 0.3 mm 3 mps 683 mmHg 47%
    21:00 +26°C° 0.3 mm 3 mps 683 mmHg 55%
    22:00 +26°C° 0.2 mm 3 mps 683 mmHg 58%
    23:00 +25°C° 0.2 mm 3 mps 683 mmHg 61%

    Day after tomorrow, 22 July, Sunday

    Time Temperature Precipitation Wind Pressure Humidity
    00:00 +24°C° 0.2 mm 3 mps 684 mmHg 64%
    01:00 +23°C° 0.2 mm 2 mps 683 mmHg 67%
    02:00 +23°C° 0.2 mm 2 mps 683 mmHg 69%
    03:00 +21°C° 0.2 mm 2 mps 683 mmHg 72%
    04:00 +23°C° 0 mm 2 mps 683 mmHg 71%
    05:00 +23°C° 0 mm 2 mps 683 mmHg 70%
    06:00 +23°C° 0 mm 2 mps 683 mmHg 69%
    07:00 +25°C° 0 mm 2 mps 684 mmHg 62%
    08:00 +27°C° 0 mm 2 mps 684 mmHg 54%
    09:00 +29°C° 0 mm 2 mps 684 mmHg 47%
    10:00 +30°C° 0.2 mm 2 mps 683 mmHg 42%
    11:00 +32°C° 0.2 mm 2 mps 683 mmHg 37%
    12:00 +34°C° 0.2 mm 2 mps 683 mmHg 33%
    13:00 +34°C° 0.2 mm 3 mps 683 mmHg 31%
    14:00 +35°C° 0.2 mm 3 mps 683 mmHg 30%
    15:00 +36°C° 0.2 mm 3 mps 682 mmHg 28%
    16:00 +34°C° 0.6 mm 3 mps 682 mmHg 34%
    17:00 +31°C° 0.6 mm 3 mps 682 mmHg 39%
    18:00 +29°C° 0.6 mm 3 mps 682 mmHg 44%
    19:00 +28°C° 0.2 mm 3 mps 682 mmHg 49%
    20:00 +26°C° 0.2 mm 2 mps 682 mmHg 53%
    21:00 +25°C° 0.2 mm 2 mps 682 mmHg 58%
    22:00 +24°C° 0.1 mm 2 mps 682 mmHg 60%
    23:00 +24°C° 0.1 mm 2 mps 683 mmHg 62%

    23 July, Monday

    Time Temperature Precipitation Wind Pressure Humidity
    00:00 +23°C° 0.1 mm 2 mps 683 mmHg 64%
    01:00 +23°C° 0.2 mm 2 mps 682 mmHg 66%
    02:00 +23°C° 0.2 mm 2 mps 682 mmHg 69%
    03:00 +21°C° 0.2 mm 2 mps 682 mmHg 71%
    04:00 +21°C° 0.2 mm 2 mps 682 mmHg 71%
    05:00 +23°C° 0.2 mm 2 mps 682 mmHg 71%
    06:00 +23°C° 0.2 mm 2 mps 683 mmHg 71%
    07:00 +25°C° 0.1 mm 2 mps 683 mmHg 63%
    08:00 +27°C° 0.1 mm 2 mps 683 mmHg 55%
    09:00 +29°C° 0.1 mm 2 mps 683 mmHg 47%
    10:00 +30°C° 0.3 mm 2 mps 683 mmHg 43%
    11:00 +32°C° 0.3 mm 2 mps 682 mmHg 38%
    12:00 +34°C° 0.3 mm 2 mps 682 mmHg 33%
    13:00 +34°C° 0.3 mm 2 mps 682 mmHg 33%
    14:00 +34°C° 0.3 mm 2 mps 682 mmHg 33%
    15:00 +35°C° 0.3 mm 2 mps 681 mmHg 33%
    16:00 +32°C° 0.9 mm 2 mps 681 mmHg 38%
    17:00 +31°C° 0.9 mm 3 mps 682 mmHg 43%
    18:00 +30°C° 0.9 mm 3 mps 682 mmHg 48%
    19:00 +28°C° 0.6 mm 3 mps 682 mmHg 53%
    20:00 +27°C° 0.6 mm 3 mps 682 mmHg 57%
    21:00 +25°C° 0.6 mm 3 mps 683 mmHg 62%
    22:00 +25°C° 0.5 mm 3 mps 683 mmHg 64%
    23:00 +24°C° 0.5 mm 2 mps 683 mmHg 66%

    24 July, Tuesday

    Time Temperature Precipitation Wind Pressure Humidity
    00:00 +24°C° 0.5 mm 2 mps 683 mmHg 69%
    01:00 +23°C° 0.3 mm 2 mps 683 mmHg 70%
    02:00 +23°C° 0.3 mm 2 mps 683 mmHg 72%
    03:00 +22°C° 0.3 mm 1 mps 683 mmHg 73%
    04:00 +23°C° 0.2 mm 1 mps 683 mmHg 72%
    05:00 +23°C° 0.2 mm 1 mps 683 mmHg 70%
    06:00 +23°C° 0.2 mm 1 mps 683 mmHg 69%
    07:00 +25°C° 0.1 mm 1 mps 683 mmHg 61%
    08:00 +27°C° 0.1 mm 1 mps 684 mmHg 53%
    09:00 +29°C° 0.1 mm 1 mps 684 mmHg 45%
    10:00 +31°C° 0.1 mm 2 mps 684 mmHg 40%
    11:00 +32°C° 0.1 mm 2 mps 683 mmHg 35%
    12:00 +35°C° 0.1 mm 2 mps 683 mmHg 30%
    13:00 +35°C° 0 mm 2 mps 683 mmHg 29%
    14:00 +36°C° 0 mm 2 mps 683 mmHg 28%
    15:00 +36°C° 0 mm 2 mps 683 mmHg 27%
    16:00 +36°C° 0.1 mm 2 mps 683 mmHg 28%
    17:00 +36°C° 0.1 mm 2 mps 683 mmHg 29%
    18:00 +35°C° 0.1 mm 2 mps 683 mmHg 31%
    19:00 +32°C° 0 mm 2 mps 683 mmHg 36%
    20:00 +30°C° 0 mm 2 mps 683 mmHg 41%
    21:00 +28°C° 0 mm 2 mps 684 mmHg 47%
    22:00 +27°C° 0 mm 2 mps 684 mmHg 50%
    23:00 +26°C° 0 mm 2 mps 684 mmHg 54%

    25 July, Wednesday

    Time Temperature Precipitation Wind Pressure Humidity
    00:00 +26°C° 0 mm 2 mps 684 mmHg 57%
    01:00 +25°C° 0 mm 1 mps 684 mmHg 59%
    02:00 +25°C° 0 mm 1 mps 684 mmHg 60%
    03:00 +24°C° 0 mm 1 mps 684 mmHg 61%
    04:00 +25°C° 0 mm 1 mps 684 mmHg 61%
    05:00 +25°C° 0 mm 1 mps 684 mmHg 60%
    06:00 +26°C° 0 mm 1 mps 685 mmHg 59%
    07:00 +28°C° 0 mm 1 mps 685 mmHg 51%
    08:00 +30°C° 0 mm 1 mps 685 mmHg 42%
    09:00 +32°C° 0 mm 2 mps 685 mmHg 34%
    10:00 +35°C° 0 mm 2 mps 685 mmHg 31%
    11:00 +36°C° 0 mm 2 mps 684 mmHg 28%
    12:00 +38°C° 0 mm 2 mps 684 mmHg 24%
    13:00 +39°C° 0 mm 2 mps 684 mmHg 23%
    14:00 +39°C° 0 mm 3 mps 684 mmHg 21%
    15:00 +40°C° 0 mm 3 mps 683 mmHg 20%
    16:00 +39°C° 0 mm 3 mps 683 mmHg 22%
    17:00 +39°C° 0 mm 3 mps 683 mmHg 23%
    18:00 +38°C° 0 mm 2 mps 683 mmHg 25%
    19:00 +36°C° 0 mm 2 mps 683 mmHg 32%
    20:00 +32°C° 0 mm 2 mps 683 mmHg 39%
    21:00 +30°C° 0 mm 2 mps 683 mmHg 45%
    22:00 +29°C° 0 mm 2 mps 683 mmHg 49%
    23:00 +29°C° 0 mm 2 mps 683 mmHg 52%
    Show more